Location: Bemerode
(52.3411°N, 9.8269°E)
Time: 23:30:44
(UTC+00:00)

Daily predictions for brighter satellites

Satellite Brightness Start Highest point End
(mag) Time Altitude Azimuth Time Altitude Azimuth Time Altitude Azimuth
Cosmos 2360 Rocket 2.9 17:18:11 10° SW 17:23:46 59° NW 17:29:24 10° NNE
BREEZE-M DEB (TANK) 3.0 17:21:53 10° W 17:23:58 38° S 17:27:16 10° ESE
Cosmos 2181 Rocket 4.1 17:18:05 10° S 17:24:21 63° E 17:30:35 10° NNE
Iridium 2 4.1 17:21:32 10° NNW 17:24:56 60° W 17:28:18 10° S
BREEZE M DEB (TANK) 3.9 17:30:17 10° SE 17:30:51 10° SE 17:31:28 10° ESE
NOSS 7 (H) 4.5 17:27:04 10° SW 17:30:52 79° NW 17:33:55 10° NE
Cosmos 1633 Rocket 3.8 17:28:54 10° SSW 17:33:09 57° WNW 17:37:29 10° N
Cosmos 2369 Rocket 3.7 17:30:49 10° NNW 17:34:56 20° NNE 17:39:01 10° ENE
BREEZE-M R/B 4.3 17:30:45 10° W 17:34:57 57° SSW 17:43:35 10° ESE
YAOGAN 1 2.7 17:31:29 10° SSE 17:35:41 55° ENE 17:39:55 10° N
Cosmos 1821 Rocket 4.1 17:29:55 10° N 17:36:10 64° ENE 17:42:28 10° SSE
Cosmos 2237 Rocket 3.1 17:32:31 10° SSE 17:37:15 28° ESE 17:41:59 10° NE
COSMOS 2455 3.2 17:32:02 10° NW 17:38:02 70° WSW 17:44:00 10° SSE
Lacrosse 5 2.3 17:33:18 10° WNW 17:38:19 53° N 17:43:18 10° E
USA 81 4.0 17:35:17 10° S 17:40:31 74° E 17:45:48 10° N
CZ-4 R/B 2.1 17:38:32 10° SE 17:41:54 30° ENE 17:45:15 10° N
Cosmos 1805 3.1 17:40:52 10° S 17:44:38 87° E 17:48:26 10° NNE
CZ-4C R/B 3.8 17:40:38 10° WNW 17:45:47 31° N 17:52:04 10° ENE
NOSS 0 Rocket 4.2 17:41:07 10° S 17:46:55 45° ESE 17:52:48 10° NE
SL-16 R/B 3.9 17:45:51 10° ESE 17:49:19 10° ENE 17:47:13 11° E
Meteor 2-10 4.5 17:41:55 10° SSW 17:47:37 77° WNW 17:53:13 10° N
Cosmos 1943 Rocket 2.4 17:42:18 10° NNW 17:47:52 52° NE 17:53:21 10° SE
CENTAUR R/B 3.8 17:41:35 10° NW 17:48:27 40° NNE 17:56:11 11° E
COSMO-SKYMED 1 2.6 17:44:19 10° NNE 17:48:41 88° WNW 17:53:03 10° SSW
ATLAS 3B R/B 2.9 17:43:21 10° SSW 17:50:12 64° SE 17:57:37 10° NE
Cosmos 2322 3.8 17:44:45 10° SSW 17:50:29 89° ESE 17:56:16 10° NNE
Cosmos 1869 Rocket 3.8 17:47:03 10° SSE 17:51:12 46° E 17:55:23 10° NNE
Cosmos 2333 Rocket 3.2 17:48:51 10° SW 17:54:20 49° NW 17:59:52 10° NNE
Cosmos 1470 3.9 17:52:08 10° SE 17:55:11 23° E 17:58:16 10° NE
COSMOS 2428 2.7 17:53:04 10° SSW 17:58:45 83° ESE 18:04:27 10° NNE
ADEOS Rocket 4.1 17:52:19 10° ESE 17:58:52 34° ENE 18:05:01 10° N
Okean 1-7 4.3 17:55:27 10° NNW 17:59:36 45° W 18:03:45 10° SSW
Landsat 7 4.0 17:55:19 10° SE 17:59:50 49° ENE 18:04:24 10° N
SJ-6B 3.4 17:56:17 10° SE 18:00:00 38° ENE 18:03:41 10° N
Nadezhda 3 Rocket 4.1 17:57:40 10° S 18:03:53 57° E 18:10:05 10° NNE
Okean O Rocket 2.2 18:02:09 10° SE 18:06:09 37° ENE 18:10:15 10° N
Akebono 3.6 18:05:17 10° SSW 18:07:23 57° ESE 18:09:29 10° NNE
Cosmos 2219 Rocket 3.0 18:03:21 10° SW 18:08:49 54° NW 18:14:21 10° NNE
Tiangong 0.3 18:09:37 10° S 18:10:35 11° S 18:11:32 10° SSE
USA 229 DEB 4.3 18:08:22 10° S 18:13:28 27° ESE 18:18:56 10° ENE
USA 229 4.3 18:08:28 10° S 18:13:34 27° ESE 18:19:01 10° ENE
Cosmos 405 2.7 18:11:19 10° N 18:13:45 36° ENE 18:14:18 32° ESE
NOSS 2-3 (C) 4.5 18:14:40 10° WSW 18:18:27 46° NNW 18:23:02 10° NE
Meteor 1-24 Rocket 4.0 18:13:47 10° N 18:18:55 42° ENE 18:22:46 16° SE
CZ-4B R/B 4.1 18:15:49 10° SSW 18:19:06 38° W 18:22:26 10° NNW
SKYMED 3 4.4 18:15:11 10° NNE 18:19:24 89° ESE 18:23:35 10° SSW
NOSS 2-2 (E) 3.8 18:17:20 10° WSW 18:20:26 47° NW 18:23:49 10° NE
Resurs 1-3 3.7 18:17:13 11° SE 18:21:20 54° ENE 18:25:37 10° N
PLATFORM 4.3 18:19:18 10° NW 18:22:20 53° NE 18:23:22 34° E
Meteor 2-5 Rocket 3.9 18:17:50 10° N 18:23:22 49° ENE 18:27:52 15° SE
GEOS 3 Rocket 3.9 18:18:08 10° NE 18:23:33 76° NW 18:28:51 10° SW
NOSS 2-3 (D) 4.5 18:20:01 10° WSW 18:23:45 45° NNW 18:28:17 10° NE
PSLV R/B 3.7 18:22:58 10° SSE 18:26:52 77° ENE 18:30:49 10° NNW
CSL-04 Rocket 3.9 18:24:15 16° SE 18:28:12 49° ENE 18:33:21 10° N
NOSS 3-1 (A) 3.2 18:24:21 10° SSW 18:29:22 58° SE 18:35:24 10° NE
SME Rocket 3.6 18:23:07 10° SSE 18:29:36 71° ENE 18:34:05 10° NNW
Cosmos 1733 Rocket 3.3 18:27:38 10° SSE 18:31:47 45° E 18:35:56 10° NNE
Resurs 01 Rocket 2.3 18:32:25 28° ESE 18:33:50 35° ENE 18:37:54 10° N
SPOT 1/Viking Rocket 3.7 18:30:18 18° SE 18:33:53 52° ENE 18:38:52 10° N
IGS 5A 4.5 18:30:12 10° S 18:34:09 47° W 18:38:09 10° NNW
USA 186 1.8 18:35:27 46° E 18:35:43 48° ENE 18:38:40 10° N
Landsat 4 3.6 18:33:09 11° SSE 18:36:39 82° WSW 18:40:19 10° NNW
Cosmos 1908 4.3 18:38:07 25° ENE 18:38:07 25° ENE 18:40:18 10° NNE
Meteor 1-15 Rocket 4.3 18:33:07 10° SSE 18:38:33 50° E 18:43:58 10° NNE
Cosmos 1269 Rocket 4.1 18:35:38 10° SSW 18:40:56 80° WNW 18:46:17 10° NNE
NOSS 2-2 (D) 4.0 18:39:05 10° WSW 18:42:09 42° NW 18:44:54 14° NE
Cosmos 1980 3.6 18:37:05 10° SSW 18:42:43 79° ESE 18:48:24 10° NNE
Cosmos 1763 Rocket 4.1 18:38:36 10° NNW 18:43:24 38° NE 18:44:57 31° E
NOSS 2-2 (C) 4.1 18:43:27 10° WSW 18:46:30 40° NW 18:49:06 14° NNE
Cosmos 540 Rocket 4.4 18:42:38 10° NNW 18:47:11 31° NE 18:48:17 28° ENE
Okean-O 3.1 18:46:44 36° E 18:47:41 41° ENE 18:51:52 10° N
CZ-4B R/B 3.3 18:43:09 10° S 18:48:26 72° WSW 18:53:49 10° NNW
Cosmos 1766 4.2 18:44:54 10° SSW 18:48:33 48° WNW 18:52:13 10° N
Cosmos 1703 4.1 18:45:16 10° N 18:48:18 31° NE 18:48:18 31° NE
CARTOSAT-1 4.1 18:48:30 35° ENE 18:48:53 36° ENE 18:52:50 10° N
Cosmos 1867 3.5 18:44:39 10° SSW 18:50:03 70° SE 18:55:30 10° NE
Cosmos 1378 Rocket 3.4 18:46:01 10° N 18:50:20 68° ENE 18:52:14 32° SSE
Cosmos 1025 Rocket 4.3 18:47:17 10° N 18:50:29 25° NE 18:50:29 25° NE
Cosmos 2278 Rocket 3.7 18:46:01 10° NW 18:51:07 35° WSW 18:56:11 10° S
Cosmos 972 Rocket 4.2 18:46:50 10° NNW 18:52:11 53° ENE 18:53:55 37° ESE
Cosmos 1140 Rocket 3.6 18:47:19 10° S 18:52:14 47° ESE 18:57:13 10° NE
CZ-4C R/B 2.8 18:53:12 10° NNE 18:56:38 78° ESE 18:59:36 14° S
Feng Yun 1-1 Rocket 4.4 18:52:13 10° SSE 18:58:00 78° WSW 19:03:41 10° NNW
Cosmos 1605 Rocket 3.8 18:52:05 10° N 18:58:13 73° ENE 19:02:32 20° SSE
Cosmos 1934 Rocket 4.2 18:53:16 10° NNW 18:59:36 74° W 19:05:48 10° S
Cosmos 389 Rocket 2.1 18:58:09 10° NNW 19:01:01 75° NW 19:01:01 75° NW
USA 267 3.4 18:58:13 28° E 19:01:49 66° NNE 19:08:19 10° WNW
Cosmos 1339 Rocket 4.5 18:56:55 10° S 19:03:14 86° E 19:09:40 10° N
Cosmos 1535 Rocket 4.4 18:57:52 10° N 19:04:02 87° W 19:09:50 12° S
NOSS 3-1 (C) 3.8 19:00:59 10° WSW 19:06:13 59° NW 19:12:39 10° NE
Gbstr 26 Del rocket 4.4 19:02:59 10° WSW 19:10:58 82° SSE 19:15:08 32° E
Cosmos 1674 Rocket 3.5 19:06:51 10° NNW 19:11:19 85° W 19:12:54 40° S
Ariane Rocket 4.1 19:12:30 27° NE 19:12:30 27° NE 19:16:31 10° N
Cosmos 2251 Rocket 3.5 19:07:15 10° S 19:12:26 58° ESE 19:17:36 10° NNE
SPOT 5 4.0 19:13:30 25° NE 19:13:30 25° NE 19:16:17 10° N
IRIDIUM 104 4.3 19:07:26 10° N 19:12:37 58° E 19:13:38 49° SE
CZ-4 R/B 3.1 19:13:18 10° SSW 19:16:39 29° W 19:20:02 10° NNW
Cosmos 1656 Rocket 3.6 19:12:05 10° NNW 19:17:33 67° ENE 19:18:42 52° ESE
Terra 3.5 19:19:06 20° NE 19:19:06 20° NE 19:21:42 10° N
Cosmos 2369 Rocket 2.2 19:14:27 10° NNW 19:20:03 65° NE 19:21:10 53° ESE
Cosmos 2237 Rocket 2.6 19:15:15 10° SW 19:20:54 65° NW 19:26:37 10° NNE
SL-4 R/B 4.1 19:17:44 10° SSW 19:19:00 17° SSW 19:19:00 17° SSW
Lacrosse 5 1.8 19:16:28 10° WNW 19:21:37 80° SSW 19:22:30 61° SE
IRIDIUM 114 4.2 19:16:32 10° N 19:21:47 69° E 19:22:44 56° SE
Cosmos 967 Rocket 4.4 19:18:12 10° NW 19:24:41 82° NE 19:26:38 48° SE
Cosmos 1400 Rocket 3.6 19:22:08 10° N 19:25:02 40° NNE 19:25:02 40° NNE
SL-16 R/B 2.1 19:24:46 10° SSW 19:30:20 60° ESE 19:35:57 10° NE
Cosmos 1470 4.2 19:27:03 10° SW 19:30:39 37° WNW 19:34:18 10° N
IRIDIUM 103 4.2 19:25:43 10° N 19:30:58 81° E 19:31:54 61° SSE
Cosmos 841 Rocket 4.3 19:26:36 10° NNW 19:31:02 35° NE 19:31:02 35° NE
Cosmos 1943 Rocket 3.5 19:26:20 10° NW 19:31:27 35° WSW 19:35:34 15° SSW
Cosmos 1727 Rocket 4.0 19:33:39 55° ESE 19:34:11 57° E 19:40:19 10° NNE
Meteor 1-22 Rocket 4.2 19:29:20 10° SSW 19:34:36 73° WNW 19:40:00 10° N
ERS-1 Rocket 4.0 19:36:23 32° NE 19:36:23 32° NE 19:40:01 10° N
CZ-4C R/B 3.4 19:29:37 10° NW 19:35:48 45° NNE 19:38:12 35° ENE
CENTAUR R/B 3.2 19:32:34 10° NW 19:40:25 72° NE 19:43:21 46° ESE
ATLAS 3B R/B 3.6 19:34:20 10° WSW 19:41:18 51° NNW 19:48:44 10° NE
Okean O Rocket 3.3 19:39:33 16° SSW 19:42:30 31° W 19:46:30 10° NNW
ADEOS Rocket 3.6 19:38:43 22° S 19:43:57 72° WSW 19:51:03 10° NNW
Cosmos 2297 3.9 19:38:23 10° NW 19:44:06 66° WSW 19:45:25 50° S
Cosmos 972 4.5 19:39:54 10° NNW 19:45:42 74° ENE 19:45:45 74° ENE
Cosmos 1153 Rocket 4.4 19:42:16 10° NNW 19:48:29 83° W 19:50:18 50° S
IRIDIUM 106 4.4 19:44:03 10° N 19:49:17 74° W 19:50:08 60° SSW
Cosmos 1356 Rocket 4.3 19:45:37 10° NNW 19:48:35 45° NNW 19:48:35 45° NNW
Cosmos 2173 Rocket 3.8 19:47:17 10° N 19:53:23 70° ENE 19:53:29 70° E
MOS 1 4.2 19:53:44 68° S 19:54:28 81° WSW 20:00:09 10° NNW
Cosmos 407 Rocket 3.7 19:55:46 10° SSW 20:01:00 71° WNW 20:06:21 10° NNE
USA 229 DEB 3.5 19:57:21 10° SW 20:03:39 83° NW 20:10:39 10° NE
USA 229 3.5 19:57:25 10° SW 20:03:44 83° NW 20:10:45 10° NE
NOSS 3-2 (A) 3.9 19:59:27 10° NW 20:06:35 77° NE 20:07:54 64° ESE
Resurs 01 Rocket 3.0 20:09:57 33° WSW 20:10:19 33° W 20:14:23 10° NNW
Cosmos 2100 Rocket 3.9 20:08:02 10° NNW 20:14:13 83° W 20:14:22 82° SW
Cosmos 1459 Rocket 3.9 20:09:33 10° N 20:15:59 88° WSW 20:16:04 87° SW
MetOp-B 4.3 20:16:32 68° WNW 20:16:32 68° WNW 20:21:26 10° NNW
Cosmos 468 Rocket 4.5 20:13:23 10° NNW 20:17:55 56° WNW 20:17:55 56° WNW
Meteor 2-10 Rocket 3.9 20:20:30 73° NW 20:20:30 73° NW 20:26:00 10° N
NOSS 3-1 (A) 4.3 20:15:10 10° W 20:20:26 46° NNW 20:26:44 10° NE
Okean-O 4.4 20:24:15 28° W 20:24:15 28° W 20:28:04 10° NW
Cosmos 1763 Rocket 4.5 20:20:26 10° NW 20:24:57 40° W 20:24:57 40° W
Exosat Rocket 4.4 20:21:40 10° NNW 20:25:51 45° N 20:25:51 45° N
Cosmos 540 Rocket 4.3 20:24:02 10° NNW 20:28:05 46° WNW 20:28:05 46° WNW
Cosmos 1802 Rocket 4.2 20:35:33 10° NNW 20:41:14 68° NW 20:41:14 68° NW
USA 267 3.4 20:45:35 67° WSW 20:45:35 67° WSW 20:51:25 10° WNW
NOSS 3-2 (C) 3.9 20:39:49 10° NW 20:46:51 75° NNE 20:46:51 75° NNE
Ariane Rocket 4.3 20:52:40 37° NW 20:52:40 37° NW 20:55:57 10° NNW
Cosmos 2061 Rocket 4.5 20:47:16 10° N 20:52:00 55° NNW 20:52:00 55° NNW
Terra 3.7 20:57:52 27° NNW 20:57:52 27° NNW 21:00:05 10° NNW
Cosmos 2016 Rocket 4.4 20:50:43 10° NNW 20:56:05 60° NW 20:56:05 60° NW
Cosmos 2369 Rocket 3.9 20:59:04 10° NW 21:02:58 26° W 21:02:58 26° W
Lacrosse 5 4.2 21:00:01 10° WNW 21:01:41 17° W 21:01:41 17° W
SL-16 R/B 3.6 21:09:40 10° WSW 21:14:48 34° NW 21:20:00 10° NNE
CZ-4C R/B 3.3 21:17:59 10° NW 21:23:20 59° WNW 21:23:20 59° WNW
USA 238 DEB 4.2 21:19:49 10° NW 21:25:31 60° NW 21:25:31 60° NW
USA 238 4.2 21:19:56 10° NW 21:25:37 60° NW 21:25:37 60° NW
CENTAUR R/B 3.8 21:23:25 10° NW 21:30:30 46° WSW 21:30:30 46° WSW
ATLAS 3B R/B 4.2 21:27:01 10° WNW 21:33:42 35° N 21:38:16 20° NE
Cosmos 1980 Rocket 4.2 21:39:05 10° NNW 21:42:03 23° N 21:42:03 23° N
ATLAS 3B R/B 3.8 23:18:59 10° NW 23:25:25 44° N 23:25:25 44° N
